[[{"header":{"parameterUnit":"m.s-1","parameterCategory":1,"la1":30.2991,"la2":30.254,"lo1":-89.0895,"lo2":-89.0444,"dy":0.0017,"dx":0.0017,"nx":28,"ny":28,"refTime":"2025-04-11T09:00:00:Z","depth":0,"parameterNumber":2,"parameterNumberName":"U-component_of_WINDS"},"data":[0,0,0,0,0,0,0,0,0,0,0,0,0,0,0,0,0,0,0,0,0,0,0,0,0,0,0,0,0,0,0,0,0,0,0,0,0,0,0,0,0,0,0,0,0,0,0,0,0,0,0,0,0,0,0,0,0,0,1.9383,1.9384,0,1.9464,1.9465,1.9465,1.945,1.9449,1.9447,1.9446,1.953,1.9534,1.9537,0,0,0,0,0,0,0,0,0,0,0,0,0,1.9219,1.9222,1.9383,1.9384,1.9385,1.9463,1.9465,1.9466,1.9451,1.9449,1.9447,1.9445,1.9529,1.9533,1.9538,0,0,0,0,0,0,0,0,0,0,0,0,0,1.9294,1.9223,1.9383,1.9387,1.9388,1.9463,1.9465,1.9466,1.9451,1.9449,1.9447,1.9445,1.9528,1.9533,1.9538,1.9615,0,0,1.9555,1.9557,0,0,0,0,0,0,0,0,1.929,1.93,1.9385,1.9387,1.9388,1.9445,1.9438,1.9516,1.9452,1.9427,1.9446,1.9444,1.9504,1.9511,1.9531,1.9619,1.9623,1.9555,1.9559,1.9561,1.9562,0,0,0,0,0,0,0,1.9284,1.9296,1.9415,1.9386,1.9388,1.9386,1.9394,1.9452,1.9477,1.9429,1.9428,1.9438,1.9504,1.9526,1.9533,1.9624,1.9555,1.956,1.9563,1.9565,1.9783,1.9785,0,0,0,0,0,0,1.9278,1.9292,1.9412,1.9417,1.9332,1.939,1.94,1.9429,1.9476,1.9481,1.944,1.9437,1.9518,1.9527,1.9536,1.9631,1.9561,1.9566,1.9569,1.978,1.9783,1.9786,0,0,0,0,0,0,1.9274,1.9288,1.9409,1.9355,1.937,1.9395,1.9428,1.9431,1.9453,1.9484,1.9488,1.9457,1.9516,1.9528,1.9596,1.9634,1.9568,1.9573,1.9777,1.9781,1.9785,1.9821,0,0,0,0,0,0,1.9269,1.9287,1.9316,1.9355,1.9373,1.9467,1.9431,1.9435,1.9462,1.9459,1.9502,1.9506,1.9515,1.9588,1.9602,1.964,1.9577,1.9774,1.9779,1.9784,1.9817,1.9826,1.9834,0,0,0,0,0,1.9264,1.9322,1.9317,1.9332,1.9409,1.9469,1.9479,1.9488,1.9465,1.9495,1.9515,1.9505,1.9627,1.9595,1.961,1.9651,1.9772,1.9778,1.9783,1.9813,1.9824,1.9834,0,0,0,0,0,0,1.9286,1.9328,1.9322,1.9395,1.9429,1.9467,1.9504,1.9499,1.954,1.9536,1.9545,1.9555,1.9625,1.9644,1.9608,1.973,1.9697,1.9706,1.9714,1.9725,1.9733,1.9728,1.9582,0,0,0,0,0,1.93,1.9345,1.9379,1.944,1.9457,1.9478,1.9505,1.9509,1.9544,1.9558,1.9583,1.9619,1.9666,1.9696,1.974,1.9819,1.983,1.9855,1.9863,1.987,1.9878,1.9925,1.9937,1.9805,1.9805,1.9805,0,0,1.9328,1.9357,1.9384,1.9446,1.9472,1.952,1.949,1.9541,1.9578,1.9566,1.9633,1.9653,1.9693,1.9768,1.9802,1.9786,1.9917,1.9877,1.9883,1.9887,1.9932,1.9944,1.9956,1.9809,1.9808,1.9808,0,0,1.9405,1.943,1.9485,1.9513,1.9554,1.9567,1.9581,1.962,1.9633,1.9699,1.9693,1.9737,1.9816,1.9846,1.9872,1.9963,1.9956,1.9977,2.0021,2.0066,2.0077,2.0086,2.0121,2.0134,1.9985,1.9985,1.9985,0,1.9436,1.9507,1.9514,1.9567,1.9596,1.9588,1.9645,1.9672,1.9725,1.9746,1.9727,1.9829,1.9855,1.9938,1.9961,1.9981,1.9998,1.9973,2.0074,2.0084,2.0093,2.0127,2.0139,1.9987,1.9987,1.9987,1.9986,0,1.9544,1.9594,1.9633,1.9686,1.9718,1.9773,1.9791,1.9823,1.9825,1.9841,1.9911,1.9942,1.9994,2.0014,2.0016,2.0099,2.0088,2.0072,2.0039,2.0108,2.014,2.0153,1.9991,1.999,1.9989,1.9988,0,0,1.9637,1.9694,1.9709,1.9734,1.9779,1.9819,1.9874,1.9925,1.9954,1.9991,2.004,2.0108,2.0095,2.0124,2.0129,2.0168,2.0242,2.0148,2.0149,2.0167,2.0339,2.0352,2.0367,2.0238,2.024,2.0242,2.0337,0,1.972,1.9817,1.9827,1.9915,1.9963,1.9957,2.0006,2.004,2.0057,2.0101,2.012,2.0169,2.0146,2.0164,2.0203,2.0225,2.0277,2.0218,2.0285,2.0287,2.0277,2.0383,2.0397,2.0485,2.0349,2.0351,2.0352,0,1.9829,1.9871,1.9964,2.0006,2.0026,2.0069,2.0119,2.016,2.0199,2.0209,2.0243,2.0244,2.0303,2.0267,2.0351,2.031,2.0338,2.0354,2.0357,2.0365,2.0325,2.0397,2.0512,2.0526,2.0372,2.037,2.0369,0,1.9892,1.9971,2.0037,2.0058,2.0108,2.0139,2.0161,2.0198,2.0229,2.0272,2.0293,2.0343,2.037,2.0409,2.0424,2.0396,2.0508,2.0473,2.052,2.052,2.0545,2.0544,2.0669,2.0559,2.0559,2.0559,2.0559,0,1.9984,2.0042,2.0066,2.0107,2.0173,2.0184,2.0248,2.0269,2.0303,2.035,2.0347,2.0391,2.0407,2.0454,2.0466,2.0535,2.0547,2.0558,2.0561,2.056,2.0559,2.058,2.0575,2.0562,2.0562,2.0561,2.056,0,2.0065,2.0083,2.0156,2.0197,2.0209,2.0256,2.0292,2.0332,2.0349,2.0408,2.0423,2.045,2.0506,2.0524,2.0591,2.06,2.0681,2.0677,2.0668,2.0669,2.0716,2.0712,2.0861,2.0883,2.0756,2.0758,2.0759,0,2.0124,2.0168,2.0215,2.0246,2.027,2.0319,2.0351,2.0364,2.0398,2.0448,2.0484,2.0539,2.0584,2.0673,2.07,2.0752,2.0751,2.08,2.0759,2.0757,2.0755,2.0753,2.0759,2.0808,2.0809,2.081,2.0811,0,2.0228,2.0235,2.0281,2.0331,2.037,2.041,2.0448,2.0474,2.0493,2.0532,2.0589,2.0624,2.0693,2.0749,2.0803,2.0827,2.0824,2.0824,2.0838,2.0838,2.0832,2.0839,2.0691,2.0821,2.082,2.0819,2.0819,2.0818,2.0301,2.0342,2.0382,2.0434,2.0464,2.0501,2.0543,2.0565,2.0613,2.0671,2.0675,2.0738,2.0779,2.0851,2.0878,2.0928,2.0915,2.0934,2.094,2.0945,2.095,2.0822,2.0938,2.0937,2.0937,2.0937,2.0937,0,2.0407,2.0433,2.0481,2.0536,2.0578,2.057,2.0613,2.0649,2.0704,2.0742,2.0787,2.0854,2.0909,2.094,2.0996,2.103,2.103,2.1044,2.1043,2.1049,2.0958,2.0941,2.1044,2.1044,2.1044,2.1044,2.1044,2.1043,2.0468,2.0537,2.0549,2.0634,2.066,2.0721,2.0747,2.0782,2.0813,2.0888,2.0933,2.0953,2.099,2.1048,2.1099,2.1107,2.1129,2.1145,2.1152,2.1066,2.1055,2.1045,2.103,2.1149,2.1149,2.124,2.1241,2.1241]},{"header":{"parameterUnit":"m.s-1","parameterCategory":1,"la1":30.2991,"la2":30.254,"lo1":-89.0895,"lo2":-89.0444,"dy":0.0017,"dx":0.0017,"nx":28,"ny":28,"refTime":"2025-04-11T09:00:00:Z","depth":0,"parameterNumber":3,"parameterNumberName":"V-component_of_WINDS"},"data":[0,0,0,0,0,0,0,0,0,0,0,0,0,0,0,0,0,0,0,0,0,0,0,0,0,0,0,0,0,0,0,0,0,0,0,0,0,0,0,0,0,0,0,0,0,0,0,0,0,0,0,0,0,0,0,0,0,0,-5.0884,-5.0884,0,-5.0923,-5.0923,-5.0924,-5.0909,-5.0908,-5.0907,-5.0907,-5.0943,-5.0944,-5.0946,0,0,0,0,0,0,0,0,0,0,0,0,0,-5.0795,-5.0797,-5.0884,-5.0884,-5.0885,-5.0923,-5.0923,-5.0924,-5.0909,-5.0908,-5.0907,-5.0906,-5.0942,-5.0944,-5.0946,0,0,0,0,0,0,0,0,0,0,0,0,0,-5.0833,-5.0797,-5.0883,-5.0882,-5.0882,-5.0923,-5.0923,-5.0924,-5.091,-5.0908,-5.0907,-5.0906,-5.0941,-5.0944,-5.0947,-5.0989,0,0,-5.0955,-5.0956,0,0,0,0,0,0,0,0,-5.0831,-5.0837,-5.0882,-5.0882,-5.0883,-5.091,-5.0905,-5.0946,-5.091,-5.0899,-5.0907,-5.0905,-5.0933,-5.0936,-5.0946,-5.0991,-5.0992,-5.0955,-5.0957,-5.0958,-5.0958,0,0,0,0,0,0,0,-5.0829,-5.0835,-5.0899,-5.0882,-5.0883,-5.0879,-5.0883,-5.0913,-5.0922,-5.09,-5.0899,-5.0904,-5.0932,-5.0943,-5.0947,-5.0993,-5.0955,-5.0957,-5.0959,-5.096,-5.1078,-5.1079,0,0,0,0,0,0,-5.0826,-5.0833,-5.0898,-5.09,-5.0853,-5.0882,-5.0886,-5.0902,-5.0922,-5.0924,-5.0905,-5.0903,-5.0939,-5.0944,-5.0948,-5.1001,-5.0958,-5.096,-5.0962,-5.1076,-5.1078,-5.108,0,0,0,0,0,0,-5.0824,-5.0832,-5.0896,-5.0866,-5.0874,-5.0885,-5.0903,-5.0904,-5.0915,-5.0926,-5.0928,-5.0915,-5.0939,-5.0944,-5.098,-5.1002,-5.0961,-5.0964,-5.1075,-5.1077,-5.1079,-5.1106,0,0,0,0,0,0,-5.0822,-5.0832,-5.0848,-5.0867,-5.0876,-5.0928,-5.0904,-5.0906,-5.092,-5.0918,-5.0935,-5.0937,-5.0938,-5.0976,-5.0983,-5.1005,-5.0966,-5.1073,-5.1076,-5.1078,-5.1104,-5.1109,-5.1114,0,0,0,0,0,-5.0819,-5.0852,-5.0849,-5.0857,-5.0897,-5.0929,-5.0934,-5.0936,-5.0922,-5.0938,-5.0946,-5.0936,-5.0999,-5.098,-5.0987,-5.101,-5.1071,-5.1075,-5.1078,-5.1101,-5.1108,-5.1114,0,0,0,0,0,0,-5.0833,-5.0855,-5.0851,-5.0892,-5.0909,-5.0927,-5.0948,-5.0943,-5.0963,-5.096,-5.096,-5.0964,-5.1002,-5.101,-5.0988,-5.1054,-5.1033,-5.1038,-5.1048,-5.1055,-5.106,-5.1057,-5.0968,0,0,0,0,0,-5.0841,-5.0867,-5.0884,-5.0919,-5.0928,-5.0937,-5.0951,-5.0951,-5.0968,-5.0975,-5.0985,-5.1002,-5.1025,-5.104,-5.1062,-5.1105,-5.1109,-5.1125,-5.113,-5.1135,-5.1139,-5.1164,-5.1172,-5.1091,-5.1091,-5.1091,0,0,-5.0858,-5.0873,-5.0889,-5.0922,-5.0935,-5.0962,-5.0942,-5.097,-5.099,-5.0978,-5.1014,-5.1023,-5.1041,-5.1081,-5.1099,-5.1089,-5.1163,-5.1139,-5.1143,-5.1144,-5.1169,-5.1176,-5.1183,-5.1094,-5.1093,-5.1093,0,0,-5.0902,-5.0915,-5.0947,-5.0962,-5.0984,-5.099,-5.0998,-5.1018,-5.1023,-5.106,-5.1052,-5.1076,-5.1115,-5.113,-5.1142,-5.1196,-5.1188,-5.1203,-5.1231,-5.1256,-5.1262,-5.1268,-5.1288,-5.1296,-5.1207,-5.1208,-5.1208,0,-5.0919,-5.096,-5.0963,-5.0994,-5.1009,-5.1003,-5.1035,-5.1049,-5.1076,-5.1087,-5.1075,-5.1128,-5.1139,-5.1184,-5.1198,-5.1208,-5.1217,-5.1201,-5.1261,-5.1267,-5.1272,-5.1292,-5.1299,-5.1209,-5.1209,-5.1209,-5.1209,0,-5.0981,-5.1009,-5.1032,-5.1062,-5.108,-5.1111,-5.1119,-5.1137,-5.1137,-5.1145,-5.1183,-5.1197,-5.1223,-5.1234,-5.1232,-5.1279,-5.1272,-5.1261,-5.1239,-5.1282,-5.13,-5.1308,-5.1212,-5.1211,-5.1211,-5.121,0,0,-5.1032,-5.1067,-5.1075,-5.109,-5.1115,-5.1137,-5.1168,-5.1196,-5.1212,-5.1232,-5.1259,-5.1295,-5.1286,-5.13,-5.13,-5.1322,-5.1367,-5.1309,-5.1309,-5.132,-5.1421,-5.143,-5.1438,-5.1362,-5.1364,-5.1365,-5.142,0,-5.1079,-5.1136,-5.1142,-5.1192,-5.122,-5.1217,-5.1244,-5.1263,-5.1272,-5.1296,-5.1305,-5.1331,-5.1316,-5.1325,-5.1347,-5.1357,-5.1387,-5.1353,-5.1387,-5.1388,-5.1383,-5.1448,-5.1456,-5.1508,-5.1427,-5.1428,-5.1429,0,-5.114,-5.1165,-5.122,-5.1245,-5.1256,-5.1281,-5.1309,-5.1332,-5.1354,-5.1359,-5.1377,-5.1376,-5.1409,-5.1387,-5.1432,-5.1409,-5.1424,-5.1431,-5.1433,-5.1436,-5.1411,-5.1453,-5.1524,-5.1532,-5.144,-5.1439,-5.1439,0,-5.1174,-5.1221,-5.126,-5.1273,-5.1303,-5.1321,-5.1334,-5.1354,-5.1372,-5.1396,-5.1408,-5.1434,-5.1449,-5.147,-5.1476,-5.1459,-5.1522,-5.15,-5.1527,-5.1527,-5.1539,-5.1539,-5.1614,-5.1549,-5.1548,-5.1548,-5.1548,0,-5.1225,-5.1259,-5.1276,-5.13,-5.1339,-5.1346,-5.1383,-5.1395,-5.1415,-5.1441,-5.1439,-5.1463,-5.147,-5.1496,-5.1501,-5.1539,-5.1545,-5.155,-5.1551,-5.1551,-5.155,-5.156,-5.1556,-5.155,-5.155,-5.155,-5.1549,0,-5.1268,-5.1281,-5.1324,-5.1351,-5.1359,-5.1386,-5.1408,-5.1431,-5.1441,-5.1475,-5.1483,-5.1498,-5.1529,-5.1538,-5.1574,-5.1577,-5.1622,-5.162,-5.1616,-5.1616,-5.1643,-5.1641,-5.1727,-5.1739,-5.1666,-5.1666,-5.1667,0,-5.13,-5.1327,-5.1358,-5.1377,-5.1391,-5.1421,-5.144,-5.1449,-5.1469,-5.1498,-5.1518,-5.155,-5.1575,-5.1624,-5.1638,-5.1666,-5.1664,-5.1693,-5.1668,-5.1668,-5.1666,-5.1664,-5.1668,-5.1697,-5.1698,-5.1698,-5.1699,0,-5.1356,-5.1363,-5.1391,-5.1423,-5.1447,-5.1472,-5.1495,-5.1511,-5.1523,-5.1546,-5.1579,-5.1599,-5.1638,-5.1669,-5.1698,-5.1711,-5.1707,-5.1707,-5.1715,-5.1715,-5.1712,-5.1715,-5.1629,-5.1705,-5.1704,-5.1704,-5.1703,-5.1703,-5.1395,-5.142,-5.1447,-5.1479,-5.1499,-5.1523,-5.1547,-5.1562,-5.159,-5.1624,-5.1628,-5.1664,-5.1688,-5.1727,-5.1742,-5.177,-5.1761,-5.1772,-5.1775,-5.1778,-5.1781,-5.1708,-5.1775,-5.1775,-5.1775,-5.1775,-5.1774,0,-5.1452,-5.1471,-5.1501,-5.1536,-5.1563,-5.156,-5.1587,-5.1609,-5.1641,-5.1665,-5.1691,-5.173,-5.1762,-5.1779,-5.181,-5.183,-5.1829,-5.1837,-5.1836,-5.1839,-5.1786,-5.1777,-5.1838,-5.1838,-5.1838,-5.1838,-5.1838,-5.1838,-5.1485,-5.1527,-5.1538,-5.159,-5.1608,-5.1645,-5.1661,-5.1683,-5.1702,-5.1747,-5.1774,-5.1787,-5.1808,-5.1841,-5.187,-5.1874,-5.1886,-5.1896,-5.1899,-5.1849,-5.1843,-5.1836,-5.1828,-5.1898,-5.1898,-5.195,-5.1951,-5.1951]}]]